[[{"header":{"parameterUnit":"m.s-1","parameterCategory":1,"la1":30.2991,"la2":30.254,"lo1":-89.0895,"lo2":-89.0444,"dy":0.0017,"dx":0.0017,"nx":28,"ny":28,"refTime":"2024-10-07T21:00:00:Z","depth":0,"parameterNumber":2,"parameterNumberName":"U-component_of_WINDS"},"data":[0,0,0,0,0,0,0,0,0,0,0,0,0,0,0,0,0,0,0,0,0,0,0,0,0,0,0,0,0,0,0,0,0,0,0,0,0,0,0,0,0,0,0,0,0,0,0,0,0,0,0,0,0,0,0,0,0,0,0.0974,0.0974,0,0.0987,0.0987,0.0988,0.0987,0.0987,0.0987,0.0987,0.1002,0.1002,0.1003,0,0,0,0,0,0,0,0,0,0,0,0,0,0.0948,0.0949,0.0974,0.0974,0.0974,0.0987,0.0987,0.0988,0.0987,0.0987,0.0987,0.0987,0.1002,0.1002,0.1003,0,0,0,0,0,0,0,0,0,0,0,0,0,0.096,0.0949,0.0973,0.0975,0.0976,0.0987,0.0987,0.0988,0.0987,0.0987,0.0987,0.0986,0.1001,0.1002,0.1003,0.1014,0,0,0.1006,0.1006,0,0,0,0,0,0,0,0,0.096,0.0961,0.0975,0.0975,0.0975,0.0985,0.0984,0.0997,0.0987,0.0983,0.0987,0.0986,0.0997,0.0998,0.1001,0.1015,0.1016,0.1006,0.1006,0.1007,0.1007,0,0,0,0,0,0,0,0.0959,0.0961,0.0979,0.0975,0.0975,0.0976,0.0977,0.0986,0.0991,0.0983,0.0983,0.0985,0.0997,0.1,0.1001,0.1016,0.1006,0.1007,0.1007,0.1008,0.104,0.104,0,0,0,0,0,0,0.0957,0.096,0.0979,0.0979,0.0967,0.0976,0.0978,0.0982,0.0991,0.0992,0.0985,0.0985,0.0999,0.1,0.1002,0.1016,0.1007,0.1008,0.1008,0.1039,0.104,0.104,0,0,0,0,0,0,0.0957,0.0959,0.0978,0.097,0.0972,0.0977,0.0982,0.0983,0.0986,0.0992,0.0993,0.0988,0.0999,0.1001,0.1011,0.1016,0.1008,0.1009,0.1039,0.104,0.104,0.1043,0,0,0,0,0,0,0.0956,0.0959,0.0963,0.097,0.0973,0.0987,0.0982,0.0983,0.0988,0.0987,0.0995,0.0996,0.0999,0.101,0.1012,0.1017,0.1009,0.1039,0.1039,0.104,0.1043,0.1044,0.1044,0,0,0,0,0,0.0955,0.0963,0.0963,0.0965,0.0978,0.0987,0.0989,0.0991,0.0988,0.0992,0.0996,0.0996,0.1015,0.1011,0.1013,0.1019,0.1038,0.1039,0.104,0.1042,0.1043,0.1044,0,0,0,0,0,0,0.0957,0.0964,0.0964,0.0975,0.098,0.0987,0.0992,0.0992,0.0999,0.0998,0.1001,0.1003,0.1014,0.1017,0.1012,0.103,0.1026,0.1028,0.1027,0.1029,0.103,0.1029,0.101,0,0,0,0,0,0.0959,0.0966,0.0971,0.098,0.0983,0.0987,0.0991,0.0993,0.0999,0.1001,0.1006,0.1012,0.1019,0.1024,0.1031,0.1043,0.1045,0.1048,0.1049,0.105,0.1051,0.1057,0.1059,0.1043,0.1043,0.1043,0,0,0.0963,0.0967,0.0971,0.0981,0.0985,0.0992,0.0989,0.0997,0.1002,0.1002,0.1012,0.1016,0.1023,0.1034,0.1039,0.1038,0.1056,0.1051,0.1051,0.1052,0.1058,0.106,0.1061,0.1043,0.1043,0.1043,0,0,0.0973,0.0977,0.0985,0.0989,0.0996,0.0998,0.1,0.1007,0.1009,0.1019,0.1019,0.1026,0.1039,0.1044,0.1048,0.106,0.106,0.1063,0.1068,0.1074,0.1075,0.1077,0.1081,0.1082,0.1064,0.1064,0.1064,0,0.0977,0.0987,0.0989,0.0996,0.1001,0.1001,0.1009,0.1013,0.1022,0.1025,0.1023,0.1039,0.1044,0.1056,0.1059,0.1062,0.1065,0.1062,0.1075,0.1076,0.1077,0.1081,0.1083,0.1064,0.1064,0.1064,0.1064,0,0.0991,0.0998,0.1004,0.1012,0.1017,0.1025,0.1028,0.1033,0.1034,0.1037,0.1047,0.1053,0.1061,0.1064,0.1066,0.1077,0.1076,0.1074,0.1071,0.1079,0.1083,0.1085,0.1064,0.1064,0.1064,0.1064,0,0,0.1003,0.1012,0.1014,0.1018,0.1025,0.1031,0.1039,0.1046,0.1051,0.1057,0.1064,0.1074,0.1073,0.1078,0.108,0.1085,0.1095,0.1083,0.1083,0.1085,0.1108,0.1108,0.111,0.1095,0.1095,0.1095,0.1107,0,0.1014,0.1028,0.103,0.1042,0.1049,0.1049,0.1056,0.1061,0.1064,0.1071,0.1074,0.1082,0.108,0.1083,0.1088,0.1092,0.1099,0.1091,0.1101,0.1102,0.1099,0.1112,0.1113,0.1124,0.1108,0.1109,0.1109,0,0.1029,0.1035,0.1048,0.1054,0.1057,0.1063,0.107,0.1076,0.1083,0.1084,0.109,0.1091,0.1099,0.1095,0.1107,0.1102,0.1106,0.1109,0.1109,0.111,0.1106,0.1114,0.1128,0.1129,0.1111,0.1111,0.1111,0,0.1036,0.1048,0.1057,0.106,0.1067,0.1072,0.1075,0.1081,0.1086,0.1092,0.1095,0.1103,0.1107,0.1113,0.1116,0.1113,0.1128,0.1124,0.113,0.113,0.1133,0.1133,0.1148,0.1136,0.1136,0.1136,0.1136,0,0.1048,0.1056,0.106,0.1066,0.1075,0.1077,0.1086,0.1089,0.1094,0.1101,0.1102,0.1108,0.1112,0.1119,0.1121,0.1131,0.1133,0.1135,0.1135,0.1135,0.1134,0.1137,0.1137,0.1137,0.1136,0.1136,0.1136,0,0.1058,0.1061,0.1071,0.1077,0.1079,0.1085,0.1091,0.1096,0.1099,0.1108,0.111,0.1115,0.1123,0.1126,0.1137,0.1138,0.1149,0.115,0.1147,0.1147,0.1153,0.1152,0.1171,0.1173,0.1159,0.1159,0.116,0,0.1066,0.1072,0.1079,0.1083,0.1086,0.1093,0.1097,0.11,0.1105,0.1112,0.1117,0.1125,0.1132,0.1145,0.1149,0.1157,0.1157,0.1163,0.1159,0.1158,0.1158,0.1157,0.1158,0.1164,0.1164,0.1164,0.1165,0,0.1079,0.108,0.1086,0.1093,0.1098,0.1104,0.1109,0.1113,0.1116,0.1122,0.113,0.1135,0.1145,0.1153,0.1161,0.1165,0.1166,0.1166,0.1168,0.1167,0.1165,0.1166,0.1149,0.1165,0.1165,0.1165,0.1165,0.1165,0.1088,0.1093,0.1099,0.1106,0.111,0.1115,0.112,0.1124,0.1131,0.1139,0.114,0.1149,0.1155,0.1166,0.117,0.1177,0.1176,0.1178,0.1179,0.1179,0.118,0.1164,0.1178,0.1178,0.1178,0.1178,0.1178,0,0.1101,0.1105,0.1111,0.1118,0.1124,0.1123,0.1129,0.1134,0.1141,0.1147,0.1153,0.1163,0.117,0.1175,0.1183,0.1188,0.1188,0.119,0.119,0.1191,0.118,0.1178,0.119,0.119,0.119,0.119,0.119,0.119,0.1109,0.1117,0.1119,0.113,0.1134,0.1142,0.1145,0.115,0.1154,0.1165,0.1171,0.1174,0.118,0.1188,0.1195,0.1196,0.1199,0.1201,0.1202,0.1193,0.1191,0.119,0.1188,0.1202,0.1202,0.1212,0.1212,0.1212]},{"header":{"parameterUnit":"m.s-1","parameterCategory":1,"la1":30.2991,"la2":30.254,"lo1":-89.0895,"lo2":-89.0444,"dy":0.0017,"dx":0.0017,"nx":28,"ny":28,"refTime":"2024-10-07T21:00:00:Z","depth":0,"parameterNumber":3,"parameterNumberName":"V-component_of_WINDS"},"data":[0,0,0,0,0,0,0,0,0,0,0,0,0,0,0,0,0,0,0,0,0,0,0,0,0,0,0,0,0,0,0,0,0,0,0,0,0,0,0,0,0,0,0,0,0,0,0,0,0,0,0,0,0,0,0,0,0,0,-3.9216,-3.9216,0,-3.924,-3.924,-3.924,-3.9222,-3.9221,-3.922,-3.9219,-3.924,-3.9241,-3.9243,0,0,0,0,0,0,0,0,0,0,0,0,0,-3.9154,-3.9155,-3.9216,-3.9216,-3.9217,-3.924,-3.924,-3.924,-3.9222,-3.9221,-3.922,-3.9219,-3.924,-3.9241,-3.9243,0,0,0,0,0,0,0,0,0,0,0,0,0,-3.9179,-3.9156,-3.9216,-3.921,-3.921,-3.924,-3.924,-3.924,-3.9222,-3.9221,-3.922,-3.9219,-3.9239,-3.9241,-3.9243,-3.9278,0,0,-3.9249,-3.925,0,0,0,0,0,0,0,0,-3.9178,-3.9182,-3.9211,-3.9211,-3.9211,-3.9227,-3.9226,-3.9253,-3.9222,-3.9217,-3.9219,-3.9218,-3.9236,-3.9238,-3.9245,-3.9279,-3.928,-3.9249,-3.925,-3.9251,-3.9252,0,0,0,0,0,0,0,-3.9176,-3.9181,-3.9225,-3.9211,-3.9211,-3.9206,-3.9209,-3.9231,-3.9233,-3.9218,-3.9217,-3.922,-3.9236,-3.9244,-3.9246,-3.928,-3.9249,-3.9251,-3.9252,-3.9253,-3.9348,-3.935,0,0,0,0,0,0,-3.9175,-3.9179,-3.9225,-3.9226,-3.9191,-3.9208,-3.9211,-3.9223,-3.9233,-3.9233,-3.9221,-3.9219,-3.9241,-3.9243,-3.9246,-3.9291,-3.9251,-3.9253,-3.9254,-3.9347,-3.9349,-3.935,0,0,0,0,0,0,-3.9174,-3.918,-3.9224,-3.9202,-3.9208,-3.9211,-3.9224,-3.9224,-3.9231,-3.9235,-3.9235,-3.9228,-3.924,-3.9244,-3.9272,-3.9292,-3.9254,-3.9255,-3.9345,-3.9348,-3.9349,-3.938,0,0,0,0,0,0,-3.9172,-3.9179,-3.9193,-3.9203,-3.9209,-3.9249,-3.9225,-3.9225,-3.9235,-3.9233,-3.9242,-3.9242,-3.9239,-3.9269,-3.9274,-3.9294,-3.9257,-3.9344,-3.9346,-3.9349,-3.9377,-3.9382,-3.9387,0,0,0,0,0,-3.917,-3.9199,-3.9193,-3.9199,-3.9226,-3.925,-3.9253,-3.925,-3.9237,-3.9251,-3.9254,-3.9242,-3.9289,-3.9272,-3.9277,-3.9298,-3.9342,-3.9346,-3.9349,-3.9374,-3.9381,-3.9387,0,0,0,0,0,0,-3.9188,-3.92,-3.9194,-3.9227,-3.9238,-3.9247,-3.9264,-3.9257,-3.9271,-3.9268,-3.9263,-3.9265,-3.9295,-3.9299,-3.928,-3.9334,-3.9313,-3.9318,-3.9331,-3.9338,-3.9343,-3.9342,-3.9259,0,0,0,0,0,-3.9196,-3.9216,-3.9224,-3.9252,-3.9258,-3.9261,-3.9271,-3.9268,-3.9279,-3.9283,-3.9288,-3.9298,-3.9315,-3.9326,-3.9342,-3.9377,-3.938,-3.9394,-3.9399,-3.9404,-3.9408,-3.943,-3.9437,-3.9361,-3.9361,-3.936,0,0,-3.9212,-3.9221,-3.9233,-3.9256,-3.9264,-3.9285,-3.9264,-3.9286,-3.9301,-3.9285,-3.9314,-3.9318,-3.9329,-3.9362,-3.9376,-3.9365,-3.943,-3.9408,-3.9411,-3.9413,-3.9434,-3.9441,-3.9447,-3.9363,-3.9362,-3.9362,0,0,-3.9253,-3.9261,-3.9287,-3.9297,-3.9311,-3.9312,-3.9319,-3.933,-3.9333,-3.9361,-3.9351,-3.9369,-3.9397,-3.9407,-3.9415,-3.9464,-3.9455,-3.9469,-3.9496,-3.9518,-3.9524,-3.9529,-3.9549,-3.9556,-3.9473,-3.9473,-3.9473,0,-3.9271,-3.9303,-3.9301,-3.9325,-3.9336,-3.9325,-3.9352,-3.9361,-3.9379,-3.9387,-3.9375,-3.9414,-3.942,-3.9457,-3.9469,-3.9475,-3.9483,-3.9468,-3.9524,-3.9529,-3.9534,-3.9553,-3.956,-3.9475,-3.9475,-3.9474,-3.9474,0,-3.9326,-3.9348,-3.9367,-3.9388,-3.9401,-3.9426,-3.9428,-3.9441,-3.9438,-3.9442,-3.9472,-3.948,-3.9499,-3.9507,-3.9502,-3.9543,-3.9537,-3.9524,-3.9503,-3.9543,-3.9561,-3.9568,-3.9477,-3.9477,-3.9476,-3.9476,0,0,-3.9377,-3.9399,-3.9406,-3.9417,-3.9433,-3.945,-3.9475,-3.9496,-3.9509,-3.9522,-3.9544,-3.957,-3.956,-3.957,-3.9567,-3.9586,-3.9627,-3.9571,-3.9571,-3.9583,-3.9676,-3.9687,-3.9695,-3.9621,-3.9622,-3.9623,-3.9676,0,-3.942,-3.9467,-3.9467,-3.951,-3.9531,-3.9523,-3.9545,-3.9558,-3.9562,-3.9581,-3.9585,-3.9605,-3.9589,-3.9595,-3.9613,-3.9618,-3.9646,-3.9614,-3.9642,-3.9644,-3.9642,-3.9704,-3.9715,-3.9764,-3.9683,-3.9684,-3.9685,0,-3.9477,-3.9496,-3.9541,-3.9558,-3.9567,-3.9587,-3.9608,-3.9626,-3.964,-3.9642,-3.9655,-3.965,-3.9677,-3.9655,-3.9692,-3.9671,-3.9682,-3.9687,-3.9689,-3.9692,-3.9668,-3.9711,-3.978,-3.9788,-3.9695,-3.9694,-3.9693,0,-3.9513,-3.9549,-3.9582,-3.9591,-3.961,-3.9626,-3.9634,-3.9648,-3.9661,-3.9679,-3.9688,-3.9707,-3.9719,-3.9734,-3.9735,-3.9718,-3.9774,-3.9751,-3.9777,-3.9777,-3.979,-3.9789,-3.9863,-3.9794,-3.9794,-3.9794,-3.9794,0,-3.9563,-3.9591,-3.9599,-3.9619,-3.9652,-3.9653,-3.9685,-3.9692,-3.9705,-3.9727,-3.9719,-3.974,-3.9739,-3.976,-3.976,-3.9793,-3.9797,-3.98,-3.98,-3.9802,-3.9802,-3.981,-3.9808,-3.9796,-3.9795,-3.9795,-3.9795,0,-3.9609,-3.9615,-3.9651,-3.9668,-3.9673,-3.9696,-3.971,-3.973,-3.9735,-3.9763,-3.9769,-3.9776,-3.9801,-3.9804,-3.9831,-3.9832,-3.9872,-3.9867,-3.9868,-3.9868,-3.9895,-3.9893,-3.9978,-3.999,-3.9912,-3.9912,-3.9913,0,-3.9641,-3.9664,-3.9684,-3.97,-3.971,-3.9734,-3.9749,-3.975,-3.9766,-3.9787,-3.9805,-3.9829,-3.9849,-3.9889,-3.9896,-3.9918,-3.9915,-3.9943,-3.9918,-3.992,-3.9918,-3.9918,-3.9921,-3.9948,-3.9949,-3.995,-3.995,0,-3.9698,-3.9701,-3.9724,-3.9749,-3.9767,-3.9786,-3.9804,-3.9816,-3.982,-3.9838,-3.9865,-3.9881,-3.9911,-3.9936,-3.9959,-3.9967,-3.996,-3.9958,-3.9966,-3.9969,-3.997,-3.9972,-3.9884,-3.9956,-3.9956,-3.9955,-3.9955,-3.9955,-3.974,-3.9761,-3.978,-3.9807,-3.9821,-3.9839,-3.9859,-3.9868,-3.9891,-3.9917,-3.9916,-3.9947,-3.9963,-3.9993,-4.0003,-4.0026,-4.0017,-4.0027,-4.003,-4.0033,-4.0038,-3.9965,-4.003,-4.003,-4.003,-4.0029,-4.0029,0,-3.9799,-3.9812,-3.9836,-3.9863,-3.9885,-3.9878,-3.9898,-3.9916,-3.9943,-3.996,-3.9981,-4.0013,-4.0038,-4.0049,-4.0073,-4.009,-4.0088,-4.0097,-4.0097,-4.0099,-4.0043,-4.0036,-4.0099,-4.0099,-4.0099,-4.0099,-4.0099,-4.0099,-3.9833,-3.987,-3.9875,-3.992,-3.9932,-3.9963,-3.9976,-3.9992,-4.0006,-4.0043,-4.0065,-4.0072,-4.0087,-4.0114,-4.0137,-4.0139,-4.015,-4.016,-4.0162,-4.011,-4.0103,-4.0096,-4.0089,-4.0162,-4.0162,-4.0216,-4.0216,-4.0217]}]]